EN

Hourly Weather Burchiha

Today, 20 April, Tuesday

Time Temperature Precipitation Wind Pressure Humidity
00:00 +4°C° 0 mm 3 mps 746 mmHg 70%
01:00 +3°C° 0 mm 3 mps 746 mmHg 69%
02:00 +3°C° 0 mm 3 mps 746 mmHg 68%
03:00 +2°C° 0 mm 3 mps 746 mmHg 70%
04:00 +1°C° 0 mm 3 mps 745 mmHg 72%
05:00 +1°C° 0 mm 3 mps 745 mmHg 74%
06:00 +1°C° 0.1 mm 3 mps 745 mmHg 76%
07:00 0°C° 0.1 mm 4 mps 745 mmHg 79%
08:00 0°C° 0.1 mm 4 mps 745 mmHg 82%
09:00 +3°C° 0 mm 4 mps 745 mmHg 75%
10:00 +4°C° 0 mm 4 mps 744 mmHg 69%
11:00 +6°C° 0 mm 4 mps 744 mmHg 62%
12:00 +6°C° 0 mm 4 mps 744 mmHg 60%
13:00 +7°C° 0 mm 4 mps 743 mmHg 59%
14:00 +7°C° 0 mm 4 mps 743 mmHg 58%
15:00 +6°C° 0 mm 4 mps 742 mmHg 66%
16:00 +5°C° 0 mm 4 mps 742 mmHg 75%
17:00 +3°C° 0 mm 4 mps 742 mmHg 83%
18:00 +3°C° 0 mm 4 mps 741 mmHg 87%
19:00 +1°C° 0 mm 4 mps 741 mmHg 91%
20:00 +2°C° 0 mm 3 mps 741 mmHg 95%
21:00 +2°C° 0.1 mm 3 mps 740 mmHg 95%
22:00 +2°C° 0.1 mm 3 mps 739 mmHg 96%
23:00 +2°C° 0.1 mm 3 mps 738 mmHg 96%

Tomorrow, 21 April, Wednesday

Time Temperature Precipitation Wind Pressure Humidity
00:00 +2°C° 0.3 mm 3 mps 737 mmHg 96%
01:00 +2°C° 0.3 mm 3 mps 736 mmHg 96%
02:00 +2°C° 0.3 mm 3 mps 736 mmHg 96%
03:00 +1°C° 1 mm 3 mps 735 mmHg 96%
04:00 +1°C° 1 mm 3 mps 734 mmHg 97%
05:00 0°C° 1 mm 3 mps 733 mmHg 97%
06:00 0°C° 0.9 mm 3 mps 732 mmHg 97%
07:00 0°C° 0.9 mm 3 mps 732 mmHg 98%
08:00 0°C° 0.9 mm 3 mps 731 mmHg 98%
09:00 +1°C° 0.4 mm 2 mps 731 mmHg 98%
10:00 +1°C° 0.4 mm 2 mps 730 mmHg 98%
11:00 +2°C° 0.4 mm 2 mps 730 mmHg 98%
12:00 +2°C° 0.3 mm 2 mps 730 mmHg 98%
13:00 +2°C° 0.3 mm 2 mps 730 mmHg 98%
14:00 +1°C° 0.3 mm 3 mps 731 mmHg 98%
15:00 +1°C° 0.1 mm 3 mps 731 mmHg 97%
16:00 +1°C° 0.1 mm 3 mps 731 mmHg 97%
17:00 +1°C° 0.1 mm 3 mps 732 mmHg 96%
18:00 +1°C° 0.1 mm 3 mps 732 mmHg 96%
19:00 +1°C° 0.1 mm 3 mps 733 mmHg 97%
20:00 0°C° 0.1 mm 3 mps 733 mmHg 97%
21:00 +1°C° 0 mm 3 mps 734 mmHg 97%
22:00 +1°C° 0 mm 3 mps 734 mmHg 97%
23:00 +1°C° 0 mm 3 mps 735 mmHg 97%

Day after tomorrow, 22 April, Thursday

Time Temperature Precipitation Wind Pressure Humidity
00:00 +2°C° 0 mm 2 mps 735 mmHg 97%
01:00 +2°C° 0 mm 2 mps 735 mmHg 97%
02:00 +2°C° 0 mm 2 mps 735 mmHg 96%
03:00 +2°C° 0 mm 2 mps 736 mmHg 96%
04:00 +1°C° 0 mm 2 mps 736 mmHg 95%
05:00 +1°C° 0 mm 2 mps 736 mmHg 94%
06:00 +2°C° 0 mm 3 mps 737 mmHg 88%
07:00 +4°C° 0 mm 3 mps 737 mmHg 83%
08:00 +5°C° 0 mm 3 mps 737 mmHg 77%
09:00 +8°C° 0.1 mm 3 mps 737 mmHg 73%
10:00 +8°C° 0.1 mm 4 mps 738 mmHg 69%
11:00 +10°C° 0.1 mm 4 mps 738 mmHg 64%
12:00 +11°C° 0.2 mm 4 mps 738 mmHg 64%
13:00 +11°C° 0.2 mm 4 mps 738 mmHg 64%
14:00 +10°C° 0.2 mm 5 mps 738 mmHg 64%
15:00 +11°C° 0.2 mm 4 mps 738 mmHg 67%
16:00 +11°C° 0.2 mm 4 mps 739 mmHg 71%
17:00 +10°C° 0.2 mm 4 mps 739 mmHg 74%
18:00 +9°C° 0 mm 3 mps 739 mmHg 80%
19:00 +7°C° 0 mm 3 mps 739 mmHg 86%
20:00 +6°C° 0 mm 2 mps 739 mmHg 91%
21:00 +5°C° 0 mm 3 mps 739 mmHg 90%
22:00 +5°C° 0 mm 3 mps 739 mmHg 89%
23:00 +5°C° 0 mm 3 mps 739 mmHg 88%

23 April, Friday

Time Temperature Precipitation Wind Pressure Humidity
00:00 +4°C° 0 mm 3 mps 739 mmHg 89%
01:00 +4°C° 0 mm 3 mps 738 mmHg 90%
02:00 +4°C° 0 mm 3 mps 738 mmHg 91%
03:00 +4°C° 0 mm 3 mps 738 mmHg 92%
04:00 +4°C° 0 mm 3 mps 738 mmHg 93%
05:00 +4°C° 0 mm 4 mps 738 mmHg 94%
06:00 +5°C° 0 mm 4 mps 737 mmHg 90%
07:00 +7°C° 0 mm 4 mps 737 mmHg 87%
08:00 +8°C° 0 mm 5 mps 737 mmHg 83%
09:00 +8°C° 0 mm 4 mps 737 mmHg 83%
10:00 +8°C° 0 mm 4 mps 738 mmHg 83%
11:00 +8°C° 0 mm 4 mps 738 mmHg 83%
12:00 +9°C° 0 mm 3 mps 738 mmHg 81%
13:00 +9°C° 0 mm 3 mps 737 mmHg 79%
14:00 +10°C° 0 mm 2 mps 737 mmHg 77%
15:00 +8°C° 0.5 mm 3 mps 737 mmHg 82%
16:00 +7°C° 0.5 mm 3 mps 737 mmHg 86%
17:00 +5°C° 0.5 mm 3 mps 737 mmHg 91%
18:00 +5°C° 0.3 mm 3 mps 737 mmHg 92%
19:00 +5°C° 0.3 mm 2 mps 737 mmHg 93%
20:00 +6°C° 0.3 mm 1 mps 737 mmHg 93%
21:00 +5°C° 0 mm 2 mps 737 mmHg 93%
22:00 +4°C° 0 mm 2 mps 737 mmHg 92%
23:00 +4°C° 0 mm 2 mps 737 mmHg 92%

24 April, Saturday

Time Temperature Precipitation Wind Pressure Humidity
00:00 +4°C° 0.3 mm 2 mps 736 mmHg 92%
01:00 +5°C° 0.3 mm 1 mps 736 mmHg 93%
02:00 +4°C° 0.3 mm 1 mps 736 mmHg 93%
03:00 +4°C° 0.2 mm 1 mps 736 mmHg 93%
04:00 +4°C° 0.2 mm 1 mps 736 mmHg 94%
05:00 +4°C° 0.2 mm 1 mps 735 mmHg 94%
06:00 +4°C° 0 mm 1 mps 735 mmHg 90%
07:00 +4°C° 0 mm 2 mps 735 mmHg 87%
08:00 +4°C° 0 mm 2 mps 735 mmHg 83%
09:00 +5°C° 0.3 mm 2 mps 735 mmHg 79%
10:00 +6°C° 0.3 mm 2 mps 735 mmHg 74%
11:00 +6°C° 0.3 mm 2 mps 735 mmHg 69%
12:00 +6°C° 0.3 mm 2 mps 735 mmHg 67%
13:00 +7°C° 0.3 mm 3 mps 734 mmHg 65%
14:00 +7°C° 0.3 mm 3 mps 734 mmHg 64%
15:00 +5°C° 0.1 mm 3 mps 734 mmHg 67%
16:00 +5°C° 0.1 mm 3 mps 734 mmHg 70%
17:00 +4°C° 0.1 mm 3 mps 734 mmHg 73%
18:00 +3°C° 0 mm 3 mps 734 mmHg 74%
19:00 +2°C° 0 mm 3 mps 734 mmHg 76%
20:00 +1°C° 0 mm 3 mps 734 mmHg 78%
21:00 +2°C° 0 mm 2 mps 734 mmHg 80%
22:00 +1°C° 0 mm 2 mps 734 mmHg 82%
23:00 +1°C° 0 mm 2 mps 734 mmHg 84%

25 April, Sunday

Time Temperature Precipitation Wind Pressure Humidity
00:00 0°C° 0 mm 3 mps 733 mmHg 88%
01:00 -1°C° 0 mm 3 mps 733 mmHg 92%
02:00 -1°C° 0 mm 3 mps 733 mmHg 95%
03:00 -1°C° 0 mm 3 mps 733 mmHg 91%
04:00 -2°C° 0 mm 4 mps 733 mmHg 88%
05:00 -1°C° 0 mm 4 mps 733 mmHg 84%
06:00 -1°C° 0 mm 4 mps 733 mmHg 81%
07:00 0°C° 0 mm 5 mps 733 mmHg 78%
08:00 0°C° 0 mm 5 mps 733 mmHg 75%
09:00 +1°C° 0 mm 5 mps 733 mmHg 69%
10:00 +1°C° 0 mm 5 mps 733 mmHg 62%
11:00 +2°C° 0 mm 5 mps 733 mmHg 56%
12:00 +2°C° 0.1 mm 5 mps 733 mmHg 54%
13:00 +2°C° 0.1 mm 5 mps 733 mmHg 52%
14:00 +3°C° 0.1 mm 5 mps 733 mmHg 49%
15:00 +4°C° 0 mm 4 mps 733 mmHg 49%
16:00 +3°C° 0 mm 4 mps 733 mmHg 48%
17:00 +3°C° 0 mm 3 mps 733 mmHg 48%
18:00 +2°C° 0 mm 3 mps 733 mmHg 57%
19:00 +1°C° 0 mm 2 mps 733 mmHg 66%
20:00 -1°C° 0 mm 2 mps 732 mmHg 75%
21:00 -1°C° 0 mm 2 mps 732 mmHg 76%
22:00 -1°C° 0 mm 3 mps 732 mmHg 77%
23:00 -1°C° 0 mm 3 mps 732 mmHg 78%
Show more

We Need Your Consent

Meteoprog and our Service Providers may store and access personal data such as cookies, device identifiers or other similar technologies on your device and process such data to personalise content and ads, as well as provide social media features and to analyse the traffic.

  • Store and/or access information on your device

    Cookies, device identifiers or other information can be stored or accessed on your device for the purposes indicated above.

  • Personalised ads and content, ad and content measurement, audience insights, and products development

    Ads and content can be personalised based on a profile. More data can be added to better personalise ads and content. Ad and content performance can be measured. Insights about the audience who saw the ads and content can be derived. Such data can be used to develop or improve user’s experience, systems and software.

By clicking ‘I Agree’ you will allow the use of indicated cookies, device identifiers, web beacons or other similar technologies. Your settings can be changed in the browser on your device.

For certain purposes, legitimate interests may be relied on, rather than consent. You can read more about this in our Privacy and Cookie Policy.